Wind_Speed
43 43 42 42 42 42 42 43 43 43 43 43 44 45 45 45 46 46 46 46 46 47 48 49 49 49 49 49 49 49 50 51 51 50 48 47 47 47
44 44 43 43 43 43 43 43 44 45 44 44 45 45 46 46 46 46 46 47 47 48 49 50 50 49 48 49 50 51 51 52 51 49 48 47 46 46
45 45 44 44 44 45 45 45 45 45 45 45 46 46 47 47 46 47 47 47 47 48 49 50 49 50 50 50 51 52 52 51 50 48 48 47 46 46
46 46 46 46 46 45 45 46 46 46 46 46 46 47 48 47 47 48 48 48 48 49 50 50 50 51 51 52 52 51 50 49 49 48 48 47 46 46
47 47 47 47 47 46 46 46 47 47 47 48 47 47 48 48 48 48 48 49 49 49 50 51 51 52 52 52 51 50 48 48 48 48 48 47 46 45
48 48 47 47 48 47 47 47 48 48 48 49 49 47 48 49 48 48 49 50 50 50 51 51 51 52 51 51 50 48 47 47 47 46 46 45 44 44
48 47 47 48 48 48 48 48 49 49 49 49 49 48 48 49 49 49 50 51 52 52 52 52 51 51 50 49 48 46 46 45 45 45 44 44 44 43
48 48 48 48 48 48 49 49 50 50 50 50 50 50 50 50 50 50 51 51 51 51 51 50 50 50 49 48 47 46 45 44 44 43 43 44 43 42
48 49 49 48 48 49 49 49 50 50 50 51 51 51 51 51 51 51 50 50 50 50 50 50 50 49 48 47 47 46 45 45 44 43 43 43 42 41
48 48 48 48 48 48 48 49 49 50 51 51 51 51 51 51 51 51 51 50 50 51 50 49 49 49 49 48 46 46 45 44 43 42 42 41 41 40
47 46 47 47 48 48 49 49 49 50 50 50 49 49 49 50 50 50 50 50 50 49 49 49 47 47 47 46 46 45 45 44 43 42 42 41 41 41
46 46 47 47 47 48 49 49 48 48 48 48 47 48 49 49 49 49 49 49 49 48 48 47 46 46 45 44 45 44 44 43 42 42 41 40 41 41
46 46 46 46 47 48 48 48 47 47 46 46 47 48 48 48 48 47 47 48 47 47 47 46 46 46 45 44 44 44 44 43 42 41 41 40 40 40
46 46 46 46 46 47 47 47 46 46 46 47 47 47 47 47 47 47 48 48 47 46 46 46 45 45 44 44 43 42 41 41 40 40 39 39 40 40
45 46 46 46 46 46 45 45 45 45 46 46 46 46 47 47 47 47 47 46 45 45 45 45 44 43 43 42 41 40 39 39 38 38 38 38 38 38
45 45 45 45 45 45 45 44 45 45 46 46 46 46 46 46 46 45 44 43 42 43 43 42 41 41 40 39 38 37 37 37 37 36 36 36 36 36
45 45 45 45 45 45 44 45 45 45 45 45 45 45 45 44 43 42 41 41 41 41 41 40 39 38 38 37 37 37 37 36 36 36 35 35 35 34
44 43 43 44 44 44 44 45 45 45 44 44 44 43 43 42 41 40 39 39 39 39 38 37 37 37 37 37 37 36 36 35 35 35 35 34 33 32
42 42 43 43 43 44 44 44 44 44 44 43 42 41 40 39 38 37 37 38 37 36 36 35 35 35 35 34 34 35 35 35 34 34 34 33 31 30
41 41 42 42 43 43 43 43 42 42 41 40 39 38 37 36 36 35 35 35 35 34 34 34 33 34 34 34 33 34 34 34 33 32 32 31 30 29
40 40 40 41 41 40 40 40 39 39 38 36 35 34 34 34 34 34 34 33 33 33 33 33 33 33 33 33 33 33 33 33 32 31 30 28 27 27
38 39 39 39 38 38 37 37 36 36 34 33 33 33 33 33 33 33 33 33 32 32 32 33 33 33 33 32 32 31 31 31 30 30 28 27 26 25
37 37 36 36 36 35 35 34 34 33 32 32 32 32 32 32 32 32 32 32 32 32 32 32 32 32 32 32 31 30 30 29 28 27 26 26 26 25
Wind_Direction
270 272 274 275 277 279 281 283 284 286 287 289 290 292 293 294 295 295 295 294 295 295 295 295 295 295 295 295 295 295 295 296 296 295 294 294 293 292
270 271 273 275 278 280 281 283 285 286 286 288 290 291 293 294 295 295 294 294 295 295 296 296 295 295 295 295 296 295 295 296 295 294 294 293 293 292
269 270 272 275 278 279 281 282 284 285 286 287 289 291 293 293 294 294 294 295 295 295 296 295 295 296 296 297 297 296 296 295 294 293 293 292 292 291
269 270 272 275 277 279 281 282 283 284 286 287 289 291 292 293 293 294 294 294 295 295 296 295 295 296 297 298 298 297 296 296 294 293 293 293 292 291
270 271 274 276 278 279 280 281 283 284 285 287 288 290 291 292 293 292 293 294 295 296 297 297 297 297 298 298 298 298 297 296 295 294 293 292 292 292
271 273 275 276 278 278 279 280 281 283 285 287 288 289 290 291 292 292 292 294 294 296 297 297 297 298 298 298 298 297 297 297 295 295 294 293 292 291
273 274 275 275 276 277 279 280 281 283 284 287 288 289 290 290 291 291 292 293 294 296 296 296 296 296 296 296 296 297 298 297 296 296 295 294 293 291
273 274 275 275 276 278 279 280 281 282 284 286 287 288 289 290 290 292 293 294 294 295 296 296 296 296 295 295 296 297 298 297 296 295 294 294 293 292
273 273 274 275 277 278 279 281 282 283 285 287 287 287 289 289 290 291 292 294 296 296 296 297 296 296 295 295 296 297 297 297 296 294 293 294 293 291
271 272 274 276 277 278 279 280 283 285 286 287 287 287 288 289 290 291 292 294 296 296 297 297 297 296 295 295 296 296 296 295 294 293 293 292 292 291
272 273 275 276 278 279 280 281 283 285 286 286 287 287 289 290 291 292 292 293 294 296 297 297 296 295 296 296 295 295 295 294 293 292 292 291 291 290
273 274 275 276 277 279 280 282 283 284 285 285 287 288 289 290 291 292 292 293 294 295 296 297 297 296 296 296 296 295 295 294 293 292 292 291 291 291
273 274 275 276 277 278 280 281 282 283 284 286 287 289 289 289 290 291 292 293 294 295 296 296 296 296 296 296 296 296 295 294 293 292 291 291 291 291
273 274 275 276 278 279 281 282 282 282 284 286 287 288 289 290 291 292 292 293 294 295 296 297 297 296 296 297 297 296 295 295 294 293 291 291 291 290
275 275 276 277 279 280 282 282 283 284 285 286 287 288 289 290 291 292 292 293 294 295 296 297 297 296 297 298 297 297 297 296 295 294 292 292 292 291
275 276 277 278 279 280 281 282 283 285 286 287 287 288 289 290 291 292 292 293 294 296 297 297 297 297 298 298 299 298 298 297 296 295 295 293 292 292
274 275 275 277 278 279 280 282 284 285 286 287 288 289 289 290 291 291 292 293 294 296 297 298 297 297 298 298 299 299 298 298 296 296 296 296 295 293
273 274 275 276 277 278 280 282 283 284 285 286 287 288 289 290 291 291 292 293 294 295 297 298 298 299 299 299 299 299 299 298 297 296 296 297 297 296
273 275 276 277 277 278 280 281 282 283 284 285 286 287 289 289 290 291 292 293 294 295 297 299 299 300 300 300 300 299 300 299 298 298 298 298 297 295
274 276 277 277 278 279 280 281 282 283 283 284 284 286 287 289 290 291 292 293 294 296 298 299 299 300 300 300 301 300 300 300 299 299 299 298 297 297
275 276 277 278 279 279 280 280 281 283 283 282 283 284 286 289 290 291 292 293 294 296 298 299 299 300 301 302 302 302 301 300 300 300 299 298 297 297
275 276 277 278 278 279 280 280 280 281 281 281 282 283 285 287 289 290 291 293 294 295 297 298 299 301 302 302 302 302 303 303 303 303 301 300 298 295
276 277 277 277 278 279 279 279 280 280 280 280 281 282 284 286 287 288 290 292 293 295 296 298 300 301 301 302 302 302 303 303 303 303 303 302 301 299
Height
5749 5748 5748 5747 5745 5744 5742 5741 5739 5737 5735 5731 5728 5724 5720 5717 5713 5710 5706 5702 5698 5694 5690 5686 5682 5677 5673 5668 5663 5659 5654 5649 5644 5639 5634 5630 5625 5621
5738 5738 5737 5736 5735 5734 5732 5730 5728 5726 5724 5721 5717 5714 5710 5706 5702 5698 5695 5691 5687 5683 5678 5674 5669 5665 5660 5655 5651 5646 5641 5636 5631 5626 5621 5617 5612 5608
5727 5727 5726 5725 5724 5723 5721 5719 5717 5714 5713 5710 5706 5703 5699 5695 5691 5687 5683 5679 5675 5671 5666 5662 5657 5652 5647 5642 5638 5633 5627 5622 5618 5613 5608 5604 5600 5596
5716 5716 5715 5714 5713 5711 5709 5707 5705 5703 5701 5699 5695 5691 5687 5684 5680 5676 5671 5667 5663 5658 5654 5649 5644 5639 5634 5629 5624 5619 5614 5609 5605 5600 5596 5591 5587 5582
5704 5704 5703 5702 5701 5700 5698 5696 5694 5691 5689 5686 5683 5679 5675 5672 5668 5664 5659 5655 5650 5645 5641 5636 5631 5626 5621 5616 5611 5606 5601 5597 5592 5588 5583 5578 5574 5570
5692 5692 5691 5690 5689 5687 5686 5684 5682 5679 5677 5674 5671 5667 5664 5660 5656 5652 5648 5643 5638 5633 5628 5622 5617 5612 5607 5603 5598 5593 5589 5584 5579 5575 5570 5566 5562 5558
5680 5680 5679 5678 5676 5675 5673 5671 5669 5667 5664 5661 5658 5655 5652 5648 5644 5640 5636 5631 5626 5620 5615 5610 5605 5600 5595 5590 5585 5581 5576 5572 5567 5562 5558 5554 5550 5547
5668 5667 5666 5665 5664 5662 5661 5659 5657 5654 5651 5649 5646 5642 5639 5635 5632 5627 5623 5619 5614 5609 5603 5598 5592 5587 5582 5577 5573 5568 5564 5560 5555 5551 5547 5543 5539 5535
5655 5654 5653 5652 5651 5650 5648 5646 5644 5641 5638 5636 5632 5629 5626 5622 5619 5615 5610 5605 5600 5595 5590 5586 5579 5574 5569 5565 5560 5556 5552 5547 5543 5539 5535 5531 5527 5524
5642 5641 5640 5639 5638 5637 5635 5633 5631 5628 5625 5622 5619 5616 5612 5609 5605 5602 5597 5592 5588 5582 5577 5573 5568 5562 5557 5552 5548 5544 5540 5535 5531 5527 5523 5520 5516 5513
5629 5628 5627 5626 5625 5623 5622 5620 5618 5615 5612 5609 5606 5603 5599 5595 5592 5588 5584 5580 5576 5570 5565 5560 5556 5551 5546 5541 5536 5531 5527 5523 5519 5515 5512 5508 5505 5501
5616 5615 5615 5613 5612 5610 5608 5607 5605 5602 5599 5596 5593 5590 5586 5582 5579 5575 5571 5567 5562 5558 5553 5548 5544 5539 5536 5531 5525 5520 5516 5511 5508 5504 5500 5496 5493 5489
5604 5603 5602 5600 5599 5597 5595 5594 5592 5589 5586 5584 5581 5577 5573 5570 5566 5562 5558 5554 5550 5545 5541 5536 5532 5527 5522 5519 5515 5509 5504 5500 5496 5493 5489 5485 5481 5477
5591 5590 5589 5588 5586 5584 5583 5581 5579 5576 5574 5571 5568 5564 5561 5557 5553 5549 5545 5541 5537 5533 5528 5524 5520 5515 5511 5507 5503 5498 5493 5489 5485 5481 5478 5474 5470 5466
5579 5578 5577 5575 5574 5572 5570 5568 5566 5563 5561 5558 5555 5552 5548 5544 5541 5537 5532 5528 5524 5520 5516 5512 5507 5503 5499 5495 5491 5487 5483 5479 5475 5471 5467 5463 5459 5455
5566 5565 5564 5563 5561 5560 5558 5556 5553 5551 5548 5545 5542 5539 5535 5532 5528 5524 5520 5517 5513 5509 5504 5500 5496 5492 5488 5484 5480 5476 5472 5468 5465 5461 5457 5453 5449 5445
5553 5552 5551 5550 5549 5547 5545 5543 5541 5538 5535 5532 5529 5526 5523 5520 5516 5512 5509 5505 5502 5498 5494 5489 5485 5481 5477 5473 5470 5466 5461 5458 5454 5450 5447 5444 5439 5435
5540 5539 5538 5537 5535 5534 5532 5530 5528 5525 5523 5520 5517 5514 5511 5508 5504 5501 5498 5495 5491 5487 5483 5479 5475 5472 5468 5464 5460 5456 5452 5448 5444 5441 5437 5434 5430 5426
5527 5526 5525 5524 5522 5521 5519 5517 5515 5513 5510 5507 5505 5502 5499 5496 5494 5491 5488 5484 5481 5477 5474 5470 5466 5462 5459 5455 5451 5446 5442 5439 5435 5431 5428 5424 5421 5418
5514 5513 5512 5511 5509 5507 5506 5504 5502 5500 5497 5495 5493 5491 5488 5486 5483 5481 5477 5474 5471 5468 5464 5461 5457 5453 5450 5446 5442 5438 5433 5429 5426 5422 5419 5415 5412 5408
5501 5500 5499 5498 5496 5494 5493 5491 5490 5488 5486 5484 5482 5480 5478 5476 5474 5471 5468 5465 5462 5459 5456 5452 5448 5445 5440 5437 5433 5429 5424 5420 5417 5413 5410 5407 5404 5401
5489 5488 5487 5485 5484 5483 5481 5480 5478 5476 5475 5473 5472 5470 5469 5466 5464 5461 5459 5456 5453 5450 5447 5444 5440 5436 5432 5428 5424 5421 5417 5412 5408 5404 5400 5398 5395 5393
5478 5476 5475 5474 5473 5471 5470 5469 5468 5466 5465 5464 5462 5461 5459 5457 5454 5452 5450 5447 5444 5441 5438 5435 5431 5427 5423 5420 5416 5412 5408 5405 5401 5397 5394 5390 5387 5385